Zurück zum Katalog

HJS-4B

AktivWissenschaftLEO
NORAD 58692·PAYLOAD·🇨🇳 China

Gestartet Dec 30, 2023 von Jiuquan Satellite Launch Center

Loading…

Nächste Überflüge (nächste 24 Stunden)

TLE

AktuellSource: Space-Track

Epoche: Sep 14, 2026, 14:51 UTC

1 58692U 23212B   26257.61875380 -.00000112  00000-0  28649-4 0  9998
2 58692  49.9992  16.4360 0000795  46.5476 313.5468 13.41460483133255

Verfolge HJS-4B in Echtzeit mit AllMySat

Download on the App Store